User: anonymous   Login
Location: Unspecified
(0.0000°N, 0.0000°E)
Time: 03:50:07
(UTC+00:00)
Language:

TES - Orbit

View from above orbital plane
View from above orbital plane
View from above satellite
View from above satellite

Ground track
Ground track

The orbit data is extracted from the following two-line orbital elements,

1 26957U 01049A   18292.76895436  .00000960  00000-0  60593-4 0  9995
2 26957  97.6835  38.8744 0039309 146.2562 335.2261 15.10942208932326
Epoch (UTC): 19 October 2018 18:27:17
Eccentricity: 0.0039309
inclination: 97.6835°
perigee height: 506 km
apogee height: 560 km
right ascension of ascending node: 38.8744°
argument of perigee: 146.2562°
revolutions per day: 15.10942208
mean anomaly at epoch: 335.2261°
orbit number at epoch: 93232

The dashed part of the orbit path shows where the satellite is in the earth's shadow,  

DLR